Barnwell, SC

5:08 PM EST on November 13, 2019 (GMT -0500)
Barnwell County

Weather History for KBNL - September, 2019

Change the Weather History Date:

Tuesday, September 17, 2019

  Actual Average (WUND) Record (WUND)
Temperature  
Mean Temperature 80 °F -  
Max Temperature 96 °F - - (-1)
Min Temperature 64 °F - - (-1)
Cooling Degree Days 15    
Growing Degree Days 30 (Base 50)    
Moisture  
Dew Point 64 °F    
Average Humidity 62    
Maximum Humidity 94    
Minimum Humidity 28    
Precipitation  
Precipitation 0.12 in - - ()
Sea Level Pressure  
Sea Level Pressure 29.95 in    
Wind  
Wind Speed 1 mph (ESE)    
Max Wind Speed 8 mph    
Max Gust Speed 13 mph    
Averages and records for this station are not official NWS values.
T = Trace of Precipitation, MM = Missing Value Source: NWS Daily Summary

Daily Weather History Graph

Daily Weather History Graph

Search for Another Location

Airport or City:

Astronomy

Sep. 17, 2019 Rise Set
Actual Time 7:10 AM EDT 7:29 PM EDT
Civil Twilight 6:45 AM EDT 7:54 PM EDT
Nautical Twilight 6:16 AM EDT 8:23 PM EDT
Astronomical Twilight 5:46 AM EDT 8:52 PM EDT
Moon 9:41 PM EDT (9/17) 10:05 AM EDT (9/17)
Length of Visible Light 13h 08m
Length of Day
12h 19m
Waning Gibbous, 89% of the Moon is Illuminated
Sep 17
Waning Gibbous
Sep 21
Last Quarter
Sep 28
New
Oct 5
First Quarter
Oct 13
Full

Hourly Weather History & Observations

Time (EDT) Temp. Heat Index Dew Point Humidity Pressure Visibility Wind Dir Wind Speed Gust Speed Precip Events Conditions
12:15 AM 71.6 °F - 64.4 °F 78% 29.97 in - Calm Calm - N/A   Clear
12:35 AM 69.8 °F - 64.4 °F 83% 29.97 in - Calm Calm - N/A   Clear
12:55 AM 69.8 °F - 64.4 °F 83% 29.97 in - Calm Calm - N/A   Clear
1:15 AM 69.8 °F - 64.4 °F 83% 29.96 in - Calm Calm - N/A   Clear
1:35 AM 69.8 °F - 64.4 °F 83% 29.96 in - Calm Calm - N/A   Clear
1:55 AM 68.0 °F - 64.4 °F 88% 29.96 in - Calm Calm - N/A   Clear
2:15 AM 69.8 °F - 64.4 °F 83% 29.96 in - Calm Calm - N/A   Clear
2:35 AM 68.0 °F - 62.6 °F 83% 29.96 in - Calm Calm - N/A   Clear
2:55 AM 68.0 °F - 62.6 °F 83% 29.95 in - Calm Calm - N/A   Clear
3:15 AM 68.0 °F - 64.4 °F 88% 29.95 in - Calm Calm - N/A   Clear
3:35 AM 68.0 °F - 62.6 °F 83% 29.94 in - Calm Calm - N/A   Clear
3:55 AM 66.2 °F - 62.6 °F 88% 29.94 in - Calm Calm - N/A   Clear
4:35 AM 66.2 °F - 62.6 °F 88% 29.94 in - Calm Calm - N/A   Clear
4:55 AM 66.2 °F - 62.6 °F 88% 29.94 in - Calm Calm - N/A   Clear
5:15 AM 66.2 °F - 62.6 °F 88% 29.94 in - Calm Calm - N/A   Clear
5:35 AM 66.2 °F - 62.6 °F 88% 29.95 in - Calm Calm - N/A   Clear
5:55 AM 66.2 °F - 62.6 °F 88% 29.95 in - Calm Calm - N/A   Clear
6:15 AM 66.2 °F - 62.6 °F 88% 29.95 in - Calm Calm - N/A   Unknown
6:35 AM 66.2 °F - 62.6 °F 88% 29.96 in - Calm Calm - N/A   Unknown
6:55 AM 64.4 °F - 62.6 °F 94% 29.96 in - Calm Calm - N/A   Unknown
7:15 AM 66.2 °F - 62.6 °F 88% 29.97 in - Calm Calm - N/A   Unknown
7:35 AM 66.2 °F - 62.6 °F 88% 29.98 in - Calm Calm - N/A   Clear
7:55 AM 68.0 °F - 62.6 °F 83% 29.98 in - Calm Calm - N/A   Clear
8:15 AM 69.8 °F - 64.4 °F 83% 29.98 in - Calm Calm - N/A   Clear
8:35 AM 73.4 °F - 64.4 °F 73% 29.99 in - Calm Calm - N/A   Clear
8:55 AM 77.0 °F - 66.2 °F 69% 29.99 in - Calm Calm - N/A   Clear
9:15 AM 78.8 °F - 66.2 °F 65% 29.99 in - Calm Calm - N/A   Clear
9:35 AM 80.6 °F 82.7 °F 66.2 °F 61% 30.00 in - East 3.5 mph - N/A   Clear
10:35 AM 84.2 °F 86.6 °F 66.2 °F 55% 30.00 in - Calm Calm - N/A   Clear
10:55 AM 86.0 °F 88.2 °F 66.2 °F 51% 29.99 in - Calm Calm - N/A   Clear
11:15 AM 87.8 °F 90.4 °F 66.2 °F 49% 29.99 in - Calm Calm - N/A   Clear
11:35 AM 89.6 °F 92.2 °F 66.2 °F 46% 29.99 in - Calm Calm - N/A   Clear
11:55 AM 91.4 °F 93.2 °F 64.4 °F 41% 29.99 in - Calm Calm - N/A   Clear
12:15 PM 91.4 °F 93.2 °F 64.4 °F 41% 29.98 in - Variable 3.5 mph - N/A   Clear
12:35 PM 91.4 °F 93.2 °F 64.4 °F 41% 29.98 in - Calm Calm - N/A   Clear
12:55 PM 93.2 °F 94.1 °F 62.6 °F 36% 29.97 in - ENE 5.8 mph 11.5 mph N/A   Clear
1:15 PM 95.0 °F 95.2 °F 60.8 °F 32% 29.96 in - East 4.6 mph - N/A   Clear
1:35 PM 95.0 °F 95.2 °F 60.8 °F 32% 29.95 in - ENE 5.8 mph - N/A   Clear
1:55 PM 96.8 °F 96.2 °F 59.0 °F 28% 29.95 in - Calm Calm - N/A   Clear
2:15 PM 95.0 °F 96.0 °F 62.6 °F 34% 29.94 in - Calm Calm - N/A   Partly Cloudy
2:35 PM 96.8 °F 98.0 °F 62.6 °F 32% 29.93 in - East 5.8 mph - N/A   Partly Cloudy
2:55 PM 95.0 °F 95.2 °F 60.8 °F 32% 29.92 in - Variable 8.1 mph - N/A   Scattered Clouds
3:15 PM 96.8 °F 97.1 °F 60.8 °F 30% 29.92 in - Variable 5.8 mph - N/A   Partly Cloudy
3:35 PM 96.8 °F 97.1 °F 60.8 °F 30% 29.92 in - Calm Calm - N/A   Scattered Clouds
3:55 PM 96.8 °F 97.1 °F 60.8 °F 30% 29.91 in - WNW 4.6 mph - N/A   Scattered Clouds
4:15 PM 96.8 °F 97.1 °F 60.8 °F 30% 29.91 in - Calm Calm - N/A   Partly Cloudy
4:35 PM 96.8 °F 97.1 °F 60.8 °F 30% 29.90 in - Calm Calm - N/A   Clear
4:55 PM 96.8 °F 98.0 °F 62.6 °F 32% 29.90 in - SW 5.8 mph - N/A   Scattered Clouds
5:15 PM 96.8 °F 97.1 °F 60.8 °F 30% 29.90 in - West 5.8 mph - N/A   Scattered Clouds
5:35 PM 96.8 °F 98.0 °F 62.6 °F 32% 29.90 in - Variable 5.8 mph - N/A   Partly Cloudy
5:55 PM 96.8 °F 98.0 °F 62.6 °F 32% 29.90 in - Calm Calm - N/A   Partly Cloudy
6:15 PM 95.0 °F 96.0 °F 62.6 °F 34% 29.90 in - Calm Calm - N/A   Partly Cloudy
6:35 PM 95.0 °F 96.0 °F 62.6 °F 34% 29.91 in - East 5.8 mph - N/A   Partly Cloudy
6:55 PM 93.2 °F 94.1 °F 62.6 °F 36% 29.91 in - East 5.8 mph - N/A   Mostly Cloudy
7:15 PM 91.4 °F 93.2 °F 64.4 °F 41% 29.91 in - East 4.6 mph - N/A   Scattered Clouds
7:35 PM 89.6 °F 91.1 °F 64.4 °F 43% 29.92 in - ESE 6.9 mph 12.7 mph N/A   Mostly Cloudy
7:55 PM 89.6 °F 91.1 °F 64.4 °F 43% 29.92 in - ESE 6.9 mph - N/A   Overcast
8:15 PM 87.8 °F 89.4 °F 64.4 °F 46% 29.93 in - ESE 6.9 mph - N/A   Mostly Cloudy
8:35 PM 86.0 °F 87.3 °F 64.4 °F 48% 29.93 in - ESE 6.9 mph - N/A   Overcast
8:55 PM 86.0 °F 87.3 °F 64.4 °F 48% 29.96 in - NNE 6.9 mph - N/A   Overcast
9:15 PM 77.0 °F - 69.8 °F 78% 29.95 in - South 6.9 mph - N/A Rain , Thunderstorm Thunderstorms and Rain
9:35 PM 77.0 °F - 69.8 °F 78% 29.95 in - SE 4.6 mph - N/A   Overcast
9:55 PM 77.0 °F - 69.8 °F 78% 29.96 in - Calm Calm - 0.12 in   Mostly Cloudy
10:15 PM 77.0 °F - 69.8 °F 78% 29.96 in - Calm Calm - N/A   Partly Cloudy
10:35 PM 73.4 °F - 71.6 °F 94% 29.97 in - Calm Calm - N/A   Unknown
10:55 PM 75.2 °F - 73.4 °F 94% 29.97 in - Calm Calm - N/A   Unknown
11:15 PM 77.0 °F - 69.8 °F 78% 29.97 in - SSE 4.6 mph - N/A Thunderstorm Thunderstorm
11:35 PM 77.0 °F - 71.6 °F 83% 29.98 in - Calm Calm - N/A Thunderstorm Thunderstorm
11:55 PM 77.0 °F - 71.6 °F 83% 29.98 in - Calm Calm - N/A Thunderstorm Thunderstorm